QTR4X OTHH-OPKC

Flight info

Callsign QTR4X
Flight time 1h 58m
Altitude 41000
Route KUPRO N300 GIDOB DCT TONVO A777 NADSO B524 ALPOR G216 LAKIV
Aircraft A359/H-SDE2E3GHIJ3J4J5LM1ORWXY/LB1D1

Departure

Time 2026-05-06 13:10
Airport Hamad International Airport (OTHH)

Arrival

Time 2026-05-06 15:08
Airport Jinnah International Airport (OPKC)
Time Latitude Longitude Altitude Speed Heading
2026-05-06 12:21 25.26468 51.61310 37 ft 0 kts 248°
2026-05-06 12:57 25.26472 51.61322 36 ft 4 kts 248°
2026-05-06 12:57 25.26482 51.61349 34 ft 4 kts 248°
2026-05-06 12:58 25.26490 51.61372 35 ft 4 kts 233°
2026-05-06 12:58 25.26510 51.61388 34 ft 4 kts 192°
2026-05-06 12:58 25.26536 51.61389 34 ft 4 kts 163°
2026-05-06 12:58 25.26560 51.61379 34 ft 4 kts 158°
2026-05-06 12:59 25.26573 51.61373 34 ft 4 kts 158°
2026-05-06 13:03 25.26570 51.61374 35 ft 2 kts 158°
2026-05-06 13:03 25.26535 51.61390 36 ft 9 kts 158°
2026-05-06 13:03 25.26462 51.61422 36 ft 12 kts 158°
2026-05-06 13:04 25.26420 51.61443 36 ft 7 kts 151°
2026-05-06 13:04 25.26395 51.61494 36 ft 8 kts 90°
2026-05-06 13:04 25.26413 51.61562 36 ft 10 kts 70°
2026-05-06 13:04 25.26442 51.61644 36 ft 13 kts 68°
2026-05-06 13:05 25.26479 51.61741 36 ft 15 kts 67°
2026-05-06 13:05 25.26501 51.61802 36 ft 6 kts 71°
2026-05-06 13:05 25.26486 51.61839 36 ft 6 kts 139°
2026-05-06 13:05 25.26443 51.61864 36 ft 8 kts 156°
2026-05-06 13:06 25.26381 51.61894 36 ft 11 kts 156°
2026-05-06 13:06 25.26302 51.61928 36 ft 13 kts 161°
2026-05-06 13:06 25.26208 51.61969 36 ft 16 kts 158°
2026-05-06 13:06 25.26098 51.62016 36 ft 18 kts 159°
2026-05-06 13:07 25.25976 51.62070 36 ft 20 kts 157°
2026-05-06 13:07 25.25841 51.62129 36 ft 22 kts 159°
2026-05-06 13:07 25.25692 51.62193 36 ft 22 kts 158°
2026-05-06 13:07 25.25546 51.62259 36 ft 24 kts 158°
2026-05-06 13:08 25.25456 51.62315 36 ft 11 kts 124°
2026-05-06 13:08 25.25459 51.62398 36 ft 12 kts 73°
2026-05-06 13:08 25.25493 51.62496 35 ft 15 kts 68°
2026-05-06 13:08 25.25536 51.62614 33 ft 17 kts 68°
2026-05-06 13:09 25.25579 51.62653 33 ft 8 kts 11°
2026-05-06 13:09 25.25605 51.62649 33 ft 0 kts 345°
2026-05-06 13:09 25.25608 51.62648 33 ft 7 kts 344°
2026-05-06 13:09 25.25898 51.62524 33 ft 83 kts 338°
2026-05-06 13:10 25.26646 51.62196 31 ft 147 kts 338°
2026-05-06 13:10 25.27763 51.61687 146 ft 192 kts 339°
2026-05-06 13:10 25.28954 51.61090 1079 ft 180 kts 340°
2026-05-06 13:10 25.30139 51.60607 1731 ft 191 kts 342°
2026-05-06 13:11 25.31480 51.60107 1990 ft 213 kts 341°
2026-05-06 13:11 25.32888 51.59493 2590 ft 220 kts 339°
2026-05-06 13:11 25.34363 51.59202 3275 ft 217 kts 10°
2026-05-06 13:11 25.35666 51.59979 3750 ft 219 kts 49°
2026-05-06 13:12 25.36239 51.61534 3955 ft 225 kts 86°
2026-05-06 13:12 25.36064 51.63237 3981 ft 227 kts 96°
2026-05-06 13:12 25.35970 51.64982 3986 ft 227 kts 85°
2026-05-06 13:12 25.36149 51.66711 3987 ft 227 kts 77°
2026-05-06 13:13 25.36519 51.68399 3981 ft 226 kts 72°
2026-05-06 13:13 25.36821 51.70105 3979 ft 228 kts 86°
2026-05-06 13:13 25.36629 51.71894 3998 ft 249 kts 100°
2026-05-06 13:13 25.36221 51.73846 3994 ft 267 kts 102°
2026-05-06 13:14 25.35791 51.75835 3989 ft 272 kts 101°
2026-05-06 13:14 25.35362 51.77877 3984 ft 273 kts 101°
2026-05-06 13:14 25.34943 51.79920 3983 ft 273 kts 101°
2026-05-06 13:14 25.34529 51.81964 3987 ft 272 kts 101°
2026-05-06 13:15 25.34118 51.84007 3986 ft 272 kts 100°
2026-05-06 13:15 25.33711 51.86049 3992 ft 272 kts 100°
2026-05-06 13:15 25.33307 51.88090 4242 ft 274 kts 100°
2026-05-06 13:15 25.32894 51.90157 4949 ft 275 kts 101°
2026-05-06 13:16 25.32481 51.92221 5737 ft 276 kts 101°
2026-05-06 13:16 25.32064 51.94306 6437 ft 280 kts 101°
2026-05-06 13:16 25.31648 51.96394 7099 ft 284 kts 101°
2026-05-06 13:16 25.31220 51.98532 7795 ft 287 kts 101°
2026-05-06 13:17 25.30786 52.00704 8531 ft 291 kts 101°
2026-05-06 13:17 25.30347 52.02894 9294 ft 294 kts 101°
2026-05-06 13:17 25.29903 52.05112 10022 ft 297 kts 101°
2026-05-06 13:17 25.29449 52.07382 10556 ft 311 kts 101°
2026-05-06 13:18 25.28917 52.09774 10865 ft 331 kts 105°
2026-05-06 13:18 25.28194 52.12220 11157 ft 349 kts 108°
2026-05-06 13:18 25.27376 52.14808 11501 ft 363 kts 108°
2026-05-06 13:18 25.26531 52.17469 12023 ft 370 kts 108°
2026-05-06 13:19 25.25674 52.20171 12632 ft 376 kts 108°
2026-05-06 13:19 25.24806 52.22913 13267 ft 380 kts 108°
2026-05-06 13:19 25.23928 52.25690 13852 ft 385 kts 108°
2026-05-06 13:19 25.23043 52.28488 14471 ft 387 kts 108°
2026-05-06 13:20 25.22154 52.31300 15091 ft 389 kts 108°
2026-05-06 13:20 25.21258 52.34133 15695 ft 392 kts 108°
2026-05-06 13:20 25.20368 52.36946 16284 ft 395 kts 109°
2026-05-06 13:20 25.19458 52.39818 16894 ft 397 kts 109°
2026-05-06 13:21 25.18547 52.42707 17537 ft 399 kts 109°
2026-05-06 13:21 25.17629 52.45603 18203 ft 400 kts 110°
2026-05-06 13:21 25.16704 52.48516 18658 ft 406 kts 110°
2026-05-06 13:21 25.15762 52.51479 19061 ft 412 kts 110°
2026-05-06 13:22 25.14808 52.54481 19500 ft 418 kts 110°
2026-05-06 13:22 25.13834 52.57521 19976 ft 422 kts 110°
2026-05-06 13:22 25.12712 52.60478 20484 ft 426 kts 115°
2026-05-06 13:22 25.11441 52.63446 20965 ft 430 kts 117°
2026-05-06 13:23 25.10092 52.66414 21442 ft 435 kts 117°
2026-05-06 13:23 25.08707 52.69398 21925 ft 440 kts 118°
2026-05-06 13:23 25.07301 52.72419 22380 ft 445 kts 118°
2026-05-06 13:23 25.05992 52.75525 22830 ft 450 kts 111°
2026-05-06 13:24 25.05008 52.78826 23310 ft 455 kts 107°
2026-05-06 13:24 25.04148 52.82198 23703 ft 459 kts 105°
2026-05-06 13:24 25.03361 52.85573 24114 ft 463 kts 104°
2026-05-06 13:24 25.02589 52.89034 24542 ft 467 kts 104°
2026-05-06 13:25 25.01821 52.92521 24982 ft 470 kts 104°
2026-05-06 13:25 25.01043 52.96042 25430 ft 474 kts 105°
2026-05-06 13:25 25.00253 52.99585 25881 ft 478 kts 105°
2026-05-06 13:25 24.99448 53.03155 26320 ft 482 kts 105°
2026-05-06 13:26 24.98631 53.06755 26776 ft 486 kts 105°
2026-05-06 13:26 24.97802 53.10383 27228 ft 490 kts 106°
2026-05-06 13:26 24.96972 53.13991 27661 ft 494 kts 106°
2026-05-06 13:26 24.96123 53.17673 28092 ft 498 kts 106°
2026-05-06 13:27 24.95265 53.21384 28518 ft 502 kts 106°
2026-05-06 13:27 24.94400 53.25126 28940 ft 506 kts 107°
2026-05-06 13:27 24.93528 53.28895 29335 ft 510 kts 106°
2026-05-06 13:27 24.92649 53.32690 29807 ft 512 kts 107°
2026-05-06 13:28 24.91767 53.36501 30150 ft 516 kts 106°
2026-05-06 13:28 24.90876 53.40347 30466 ft 520 kts 106°
2026-05-06 13:28 24.89964 53.44207 30787 ft 523 kts 107°
2026-05-06 13:28 24.88967 53.48014 31089 ft 525 kts 109°
2026-05-06 13:29 24.87892 53.51872 31397 ft 528 kts 109°
2026-05-06 13:29 24.86794 53.55741 31710 ft 531 kts 109°
2026-05-06 13:29 24.85691 53.59637 31988 ft 534 kts 109°
2026-05-06 13:29 24.84592 53.63554 32254 ft 537 kts 109°
2026-05-06 13:30 24.83496 53.67498 32547 ft 540 kts 109°
2026-05-06 13:30 24.82400 53.71465 32819 ft 543 kts 109°
2026-05-06 13:30 24.81305 53.75443 33081 ft 545 kts 108°
2026-05-06 13:30 24.80207 53.79436 33461 ft 544 kts 108°
2026-05-06 13:31 24.79125 53.83371 33831 ft 544 kts 108°
2026-05-06 13:31 24.78028 53.87355 34165 ft 544 kts 108°
2026-05-06 13:31 24.76933 53.91327 34523 ft 542 kts 108°
2026-05-06 13:31 24.75891 53.95307 34876 ft 542 kts 105°
2026-05-06 13:32 24.75275 53.99397 35219 ft 542 kts 95°
2026-05-06 13:32 24.75249 54.03539 35513 ft 542 kts 85°
2026-05-06 13:32 24.75648 54.07660 35807 ft 542 kts 82°
2026-05-06 13:32 24.76175 54.11763 36120 ft 541 kts 81°
2026-05-06 13:33 24.76762 54.15853 36433 ft 541 kts 80°
2026-05-06 13:33 24.77368 54.19933 36748 ft 540 kts 80°
2026-05-06 13:33 24.77964 54.23956 37041 ft 539 kts 81°
2026-05-06 13:33 24.78558 54.28023 37345 ft 539 kts 81°
2026-05-06 13:34 24.79140 54.32090 37638 ft 538 kts 81°
2026-05-06 13:34 24.79713 54.36156 37928 ft 537 kts 81°
2026-05-06 13:34 24.80280 54.40218 38215 ft 537 kts 81°
2026-05-06 13:34 24.80843 54.44273 38476 ft 536 kts 81°
2026-05-06 13:35 24.81404 54.48327 38704 ft 535 kts 81°
2026-05-06 13:35 24.81963 54.52372 38935 ft 534 kts 81°
2026-05-06 13:35 24.82513 54.56363 39145 ft 534 kts 81°
2026-05-06 13:35 24.83068 54.60394 39354 ft 533 kts 81°
2026-05-06 13:36 24.83622 54.64426 39567 ft 532 kts 81°
2026-05-06 13:36 24.84175 54.68453 39747 ft 532 kts 81°
2026-05-06 13:36 24.84727 54.72479 39940 ft 531 kts 81°
2026-05-06 13:36 24.85275 54.76494 40134 ft 531 kts 81°
2026-05-06 13:37 24.85824 54.80513 40288 ft 531 kts 81°
2026-05-06 13:37 24.86371 54.84532 40461 ft 530 kts 82°
2026-05-06 13:37 24.86917 54.88546 40620 ft 530 kts 82°
2026-05-06 13:37 24.87453 54.92502 40753 ft 529 kts 82°
2026-05-06 13:38 24.87993 54.96495 40764 ft 527 kts 82°
2026-05-06 13:38 24.89070 55.04474 40777 ft 526 kts 82°
2026-05-06 13:39 24.90141 55.12449 40772 ft 527 kts 82°
2026-05-06 13:39 24.91209 55.20432 40773 ft 527 kts 82°
2026-05-06 13:40 24.92265 55.28361 40780 ft 527 kts 82°
2026-05-06 13:40 24.93325 55.36351 40773 ft 527 kts 82°
2026-05-06 13:41 24.94381 55.44339 40774 ft 527 kts 82°
2026-05-06 13:41 24.95433 55.52341 40779 ft 527 kts 82°
2026-05-06 13:42 24.96474 55.60280 40782 ft 527 kts 82°
2026-05-06 13:42 24.97517 55.68279 40785 ft 527 kts 82°
2026-05-06 13:43 24.98556 55.76277 40788 ft 527 kts 82°
2026-05-06 13:43 24.99592 55.84286 40790 ft 528 kts 82°
2026-05-06 13:44 25.00623 55.92290 40794 ft 528 kts 82°
2026-05-06 13:44 25.01643 56.00244 40797 ft 528 kts 82°
2026-05-06 13:45 25.02666 56.08257 40801 ft 528 kts 82°
2026-05-06 13:45 25.04193 56.20283 40804 ft 528 kts 82°
2026-05-06 13:46 25.05204 56.28293 40771 ft 527 kts 82°
2026-05-06 13:46 25.06206 56.36259 40774 ft 528 kts 82°
2026-05-06 13:47 25.07209 56.44275 40777 ft 528 kts 82°
2026-05-06 13:47 25.07956 56.52318 40781 ft 527 kts 91°
2026-05-06 13:48 25.07051 56.60307 40785 ft 525 kts 102°
2026-05-06 13:48 25.05598 56.68146 40781 ft 524 kts 103°
2026-05-06 13:49 25.04050 56.75996 40778 ft 524 kts 103°
2026-05-06 13:49 25.02517 56.83846 40780 ft 524 kts 103°
2026-05-06 13:50 25.01001 56.91699 40780 ft 524 kts 103°
2026-05-06 13:50 24.99499 56.99500 40775 ft 524 kts 103°
2026-05-06 13:51 24.97989 57.07349 40775 ft 524 kts 103°
2026-05-06 13:51 24.96466 57.15193 40774 ft 524 kts 103°
2026-05-06 13:52 24.94936 57.23046 40764 ft 524 kts 103°
2026-05-06 13:52 24.93406 57.30886 40774 ft 523 kts 103°
2026-05-06 13:53 24.91886 57.38659 40771 ft 522 kts 103°
2026-05-06 13:53 24.90352 57.46477 40774 ft 522 kts 103°
2026-05-06 13:54 24.88815 57.54288 40780 ft 522 kts 103°
2026-05-06 13:54 24.87274 57.62099 40779 ft 522 kts 103°
2026-05-06 13:55 24.85738 57.69859 40780 ft 522 kts 103°
2026-05-06 13:55 24.84188 57.77670 40777 ft 522 kts 103°
2026-05-06 13:56 24.82633 57.85485 40774 ft 522 kts 103°
2026-05-06 13:56 24.81056 57.93269 40781 ft 520 kts 103°
2026-05-06 13:57 24.79480 58.00982 40779 ft 520 kts 104°
2026-05-06 13:57 24.77893 58.08753 40779 ft 520 kts 104°
2026-05-06 13:58 24.76304 58.16518 40782 ft 520 kts 104°
2026-05-06 13:58 24.74712 58.24286 40782 ft 521 kts 103°
2026-05-06 13:59 24.73115 58.32057 40782 ft 521 kts 104°
2026-05-06 13:59 24.71525 58.39770 40782 ft 521 kts 104°
2026-05-06 14:00 24.69920 58.47536 40785 ft 521 kts 104°
2026-05-06 14:00 24.68309 58.55305 40788 ft 521 kts 104°
2026-05-06 14:01 24.66696 58.63067 40785 ft 521 kts 104°
2026-05-06 14:01 24.65088 58.70781 40785 ft 521 kts 104°
2026-05-06 14:02 24.63467 58.78539 40785 ft 521 kts 104°
2026-05-06 14:02 24.61841 58.86299 40785 ft 521 kts 104°
2026-05-06 14:03 24.60211 58.94054 40785 ft 521 kts 104°
2026-05-06 14:03 24.58589 59.01756 40785 ft 521 kts 104°
2026-05-06 14:04 24.56953 59.09501 40786 ft 520 kts 104°
2026-05-06 14:04 24.55315 59.17232 40787 ft 519 kts 104°
2026-05-06 14:05 24.53676 59.24957 40790 ft 519 kts 104°
2026-05-06 14:05 24.52041 59.32628 40790 ft 519 kts 104°
2026-05-06 14:06 24.50392 59.40342 40788 ft 519 kts 104°
2026-05-06 14:06 24.48738 59.48063 40788 ft 519 kts 104°
2026-05-06 14:07 24.47080 59.55781 40788 ft 519 kts 104°
2026-05-06 14:07 24.45419 59.63493 40788 ft 520 kts 104°
2026-05-06 14:08 24.43764 59.71157 40790 ft 519 kts 104°
2026-05-06 14:08 24.42098 59.78856 40787 ft 518 kts 104°
2026-05-06 14:09 24.40428 59.86547 40787 ft 518 kts 104°
2026-05-06 14:09 24.38756 59.94234 40788 ft 518 kts 104°
2026-05-06 14:10 24.37088 60.01876 40791 ft 518 kts 104°
2026-05-06 14:10 24.35407 60.09565 40789 ft 518 kts 104°
2026-05-06 14:11 24.33727 60.17247 40789 ft 519 kts 104°
2026-05-06 14:11 24.32036 60.24939 40788 ft 519 kts 104°
2026-05-06 14:12 24.30343 60.32623 40788 ft 519 kts 104°
2026-05-06 14:12 24.28657 60.40256 40788 ft 518 kts 104°
2026-05-06 14:13 24.26961 60.47921 40783 ft 517 kts 104°
2026-05-06 14:13 24.25262 60.55581 40780 ft 517 kts 104°
2026-05-06 14:14 24.23559 60.63237 40783 ft 517 kts 104°
2026-05-06 14:14 24.21862 60.70846 40785 ft 517 kts 104°
2026-05-06 14:15 24.20155 60.78502 40786 ft 517 kts 104°
2026-05-06 14:15 24.18444 60.86159 40797 ft 518 kts 104°
2026-05-06 14:16 24.16726 60.93820 40800 ft 518 kts 104°
2026-05-06 14:16 24.15020 61.01413 40784 ft 517 kts 104°
2026-05-06 14:17 24.13301 61.09047 40778 ft 516 kts 104°
2026-05-06 14:17 24.11579 61.16676 40778 ft 516 kts 105°
2026-05-06 14:18 24.10145 61.23016 40788 ft 516 kts 105°
2026-05-06 14:18 24.08418 61.31943 40781 ft 517 kts 95°
2026-05-06 14:19 24.08736 61.39778 40800 ft 517 kts 82°
2026-05-06 14:19 24.09812 61.47564 40796 ft 518 kts 80°
2026-05-06 14:20 24.10800 61.54028 40781 ft 518 kts 80°
2026-05-06 14:20 24.11974 61.61803 40789 ft 518 kts 80°
2026-05-06 14:21 24.13300 61.70845 40790 ft 518 kts 80°
2026-05-06 14:21 24.14237 61.77322 40781 ft 518 kts 80°
2026-05-06 14:22 24.15331 61.85105 40793 ft 518 kts 81°
2026-05-06 14:22 24.16381 61.92907 40790 ft 518 kts 81°
2026-05-06 14:23 24.17434 62.00711 40792 ft 518 kts 81°
2026-05-06 14:23 24.18480 62.08468 40794 ft 518 kts 81°
2026-05-06 14:24 24.19530 62.16280 40791 ft 518 kts 81°
2026-05-06 14:24 24.20576 62.24090 40785 ft 519 kts 81°
2026-05-06 14:25 24.21619 62.31909 40795 ft 519 kts 81°
2026-05-06 14:25 24.22659 62.39736 40801 ft 519 kts 81°
2026-05-06 14:26 24.23688 62.47508 40790 ft 519 kts 81°
2026-05-06 14:26 24.24719 62.55334 40792 ft 519 kts 81°
2026-05-06 14:27 24.25748 62.63164 40791 ft 520 kts 81°
2026-05-06 14:27 24.26772 62.71001 40782 ft 520 kts 81°
2026-05-06 14:28 24.27786 62.78789 40793 ft 520 kts 81°
2026-05-06 14:28 24.28804 62.86634 40789 ft 520 kts 81°
2026-05-06 14:29 24.29817 62.94480 40799 ft 520 kts 81°
2026-05-06 14:29 24.30826 63.02324 40785 ft 520 kts 81°
2026-05-06 14:30 24.31824 63.10118 40783 ft 520 kts 81°
2026-05-06 14:30 24.32826 63.17969 40785 ft 520 kts 81°
2026-05-06 14:31 24.33822 63.25815 40785 ft 519 kts 81°
2026-05-06 14:31 24.34814 63.33658 40793 ft 519 kts 81°
2026-05-06 14:32 24.35803 63.41505 40796 ft 519 kts 81°
2026-05-06 14:32 24.36780 63.49299 40782 ft 520 kts 81°
2026-05-06 14:33 24.37762 63.57158 40796 ft 520 kts 81°
2026-05-06 14:33 24.38740 63.65022 40800 ft 520 kts 81°
2026-05-06 14:34 24.39713 63.72884 40795 ft 520 kts 81°
2026-05-06 14:34 24.40676 63.80698 40792 ft 521 kts 81°
2026-05-06 14:35 24.41643 63.88574 40785 ft 521 kts 81°
2026-05-06 14:35 24.42605 63.96447 40784 ft 521 kts 81°
2026-05-06 14:36 24.43564 64.04326 40805 ft 521 kts 81°
2026-05-06 14:36 24.44511 64.12146 40790 ft 521 kts 81°
2026-05-06 14:37 24.45462 64.20024 40793 ft 521 kts 81°
2026-05-06 14:37 24.46408 64.27909 40802 ft 521 kts 81°
2026-05-06 14:38 24.47351 64.35792 40791 ft 521 kts 81°
2026-05-06 14:38 24.48282 64.43622 40797 ft 521 kts 81°
2026-05-06 14:39 24.49216 64.51499 40798 ft 521 kts 81°
2026-05-06 14:39 24.50146 64.59388 40800 ft 521 kts 81°
2026-05-06 14:40 24.51071 64.67271 40796 ft 521 kts 81°
2026-05-06 14:40 24.51987 64.75105 40800 ft 521 kts 81°
2026-05-06 14:41 24.52904 64.82992 40817 ft 521 kts 82°
2026-05-06 14:41 24.53589 64.90920 40478 ft 522 kts 84°
2026-05-06 14:42 24.53876 64.94887 39981 ft 522 kts 84°
2026-05-06 14:42 24.54171 64.98863 39503 ft 522 kts 84°
2026-05-06 14:42 24.54473 65.02844 39016 ft 524 kts 84°
2026-05-06 14:42 24.54779 65.06837 38552 ft 526 kts 84°
2026-05-06 14:43 24.55083 65.10789 38006 ft 527 kts 84°
2026-05-06 14:43 24.55392 65.14806 37467 ft 529 kts 83°
2026-05-06 14:43 24.55702 65.18839 36934 ft 531 kts 83°
2026-05-06 14:43 24.56012 65.22886 36416 ft 532 kts 83°
2026-05-06 14:44 24.56323 65.26943 35910 ft 534 kts 83°
2026-05-06 14:44 24.56633 65.31012 35422 ft 536 kts 83°
2026-05-06 14:44 24.56943 65.35093 34934 ft 538 kts 83°
2026-05-06 14:45 24.57564 65.43312 33981 ft 541 kts 83°
2026-05-06 14:45 24.57871 65.47383 33485 ft 543 kts 82°
2026-05-06 14:45 24.58181 65.51525 32944 ft 545 kts 82°
2026-05-06 14:45 24.58491 65.55679 32448 ft 546 kts 82°
2026-05-06 14:46 24.58799 65.59835 31935 ft 547 kts 82°
2026-05-06 14:46 24.59108 65.64002 31446 ft 548 kts 82°
2026-05-06 14:46 24.59416 65.68176 30948 ft 550 kts 82°
2026-05-06 14:46 24.59724 65.72370 30471 ft 551 kts 82°
2026-05-06 14:47 24.60031 65.76566 29991 ft 550 kts 81°
2026-05-06 14:47 24.60334 65.80738 29381 ft 544 kts 81°
2026-05-06 14:47 24.60629 65.84802 28716 ft 538 kts 81°
2026-05-06 14:47 24.60923 65.88879 28053 ft 532 kts 81°
2026-05-06 14:48 24.61214 65.92911 27374 ft 527 kts 81°
2026-05-06 14:48 24.61501 65.96912 26727 ft 522 kts 81°
2026-05-06 14:48 24.61784 66.00870 26070 ft 517 kts 81°
2026-05-06 14:48 24.62064 66.04791 25409 ft 513 kts 81°
2026-05-06 14:49 24.62340 66.08678 24775 ft 508 kts 81°
2026-05-06 14:49 24.62613 66.12530 24133 ft 503 kts 81°
2026-05-06 14:49 24.62883 66.16349 23499 ft 499 kts 81°
2026-05-06 14:49 24.63149 66.20129 22765 ft 494 kts 81°
2026-05-06 14:50 24.63407 66.23818 22118 ft 487 kts 82°
2026-05-06 14:50 24.63664 66.27500 21476 ft 480 kts 82°
2026-05-06 14:50 24.63916 66.31129 20834 ft 473 kts 82°
2026-05-06 14:50 24.64164 66.34710 20192 ft 467 kts 82°
2026-05-06 14:51 24.64408 66.38244 19547 ft 456 kts 82°
2026-05-06 14:51 24.64639 66.41638 18941 ft 438 kts 82°
2026-05-06 14:51 24.64868 66.44962 18323 ft 435 kts 82°
2026-05-06 14:51 24.65092 66.48216 17671 ft 431 kts 82°
2026-05-06 14:52 24.65315 66.51484 17012 ft 426 kts 82°
2026-05-06 14:52 24.65535 66.54709 16384 ft 420 kts 82°
2026-05-06 14:52 24.65750 66.57893 15797 ft 415 kts 82°
2026-05-06 14:52 24.65963 66.61029 15225 ft 409 kts 82°
2026-05-06 14:53 24.66172 66.64126 14693 ft 402 kts 82°
2026-05-06 14:53 24.66375 66.67159 14219 ft 394 kts 82°
2026-05-06 14:53 24.66575 66.70142 13662 ft 389 kts 82°
2026-05-06 14:53 24.66773 66.73092 13036 ft 385 kts 82°
2026-05-06 14:54 24.66968 66.76002 12636 ft 383 kts 82°
2026-05-06 14:54 24.67167 66.78948 12358 ft 388 kts 82°
2026-05-06 14:54 24.67358 66.81832 11870 ft 379 kts 82°
2026-05-06 14:54 24.67546 66.84700 11290 ft 374 kts 82°
2026-05-06 14:55 24.67729 66.87500 11091 ft 358 kts 82°
2026-05-06 14:55 24.67901 66.90162 10969 ft 341 kts 82°
2026-05-06 14:55 24.68066 66.92700 10849 ft 325 kts 82°
2026-05-06 14:55 24.68224 66.95125 10719 ft 311 kts 82°
2026-05-06 14:56 24.68375 66.97441 10592 ft 297 kts 82°
2026-05-06 14:56 24.68519 66.99659 10468 ft 285 kts 82°
2026-05-06 14:56 24.68659 67.01798 10252 ft 278 kts 81°
2026-05-06 14:56 24.68836 67.03872 9929 ft 274 kts 76°
2026-05-06 14:57 24.69447 67.05880 9605 ft 282 kts 59°
2026-05-06 14:57 24.70422 67.07769 9212 ft 285 kts 56°
2026-05-06 14:57 24.71449 67.09633 8846 ft 285 kts 56°
2026-05-06 14:57 24.72466 67.11485 8484 ft 281 kts 56°
2026-05-06 14:58 24.73466 67.13317 8089 ft 277 kts 56°
2026-05-06 14:58 24.74448 67.15125 7754 ft 274 kts 57°
2026-05-06 14:58 24.75404 67.16890 7431 ft 270 kts 57°
2026-05-06 14:58 24.76358 67.18653 7089 ft 266 kts 57°
2026-05-06 14:59 24.77298 67.20393 6763 ft 263 kts 57°
2026-05-06 14:59 24.78218 67.22095 6436 ft 253 kts 58°
2026-05-06 14:59 24.79100 67.23725 6114 ft 245 kts 59°
2026-05-06 14:59 24.79956 67.25314 5779 ft 236 kts 58°
2026-05-06 15:00 24.80774 67.26833 5462 ft 229 kts 58°
2026-05-06 15:00 24.81586 67.28339 5147 ft 228 kts 58°
2026-05-06 15:00 24.82394 67.29837 4843 ft 227 kts 59°
2026-05-06 15:00 24.83190 67.31315 4543 ft 228 kts 58°
2026-05-06 15:01 24.84004 67.32825 4235 ft 230 kts 59°
2026-05-06 15:01 24.84817 67.34335 3932 ft 229 kts 58°
2026-05-06 15:01 24.85626 67.35834 3614 ft 228 kts 59°
2026-05-06 15:01 24.86449 67.37331 3306 ft 229 kts 57°
2026-05-06 15:02 24.87525 67.38605 3053 ft 228 kts 35°
2026-05-06 15:02 24.88960 67.39299 2997 ft 225 kts
2026-05-06 15:02 24.90458 67.39291 2986 ft 204 kts 345°
2026-05-06 15:02 24.91767 67.38942 2991 ft 194 kts 340°
2026-05-06 15:03 24.93056 67.38528 2998 ft 192 kts 337°
2026-05-06 15:03 24.94217 67.37852 2995 ft 187 kts 316°
2026-05-06 15:03 24.95000 67.36766 2989 ft 179 kts 290°
2026-05-06 15:03 24.95230 67.35445 3001 ft 174 kts 272°
2026-05-06 15:04 24.95107 67.34138 2988 ft 172 kts 252°
2026-05-06 15:04 24.94770 67.32890 2801 ft 166 kts 251°
2026-05-06 15:04 24.94470 67.31705 2597 ft 154 kts 252°
2026-05-06 15:04 24.94199 67.30614 2383 ft 141 kts 253°
2026-05-06 15:05 24.93949 67.29626 2219 ft 131 kts 253°
2026-05-06 15:05 24.93707 67.28671 2043 ft 129 kts 253°
2026-05-06 15:05 24.93465 67.27711 1887 ft 131 kts 253°
2026-05-06 15:05 24.93220 67.26743 1724 ft 130 kts 254°
2026-05-06 15:06 24.92982 67.25797 1555 ft 128 kts 254°
2026-05-06 15:06 24.92743 67.24853 1381 ft 128 kts 254°
2026-05-06 15:06 24.92503 67.23906 1231 ft 129 kts 255°
2026-05-06 15:06 24.92265 67.22962 1078 ft 128 kts 254°
2026-05-06 15:07 24.92028 67.22030 925 ft 128 kts 256°
2026-05-06 15:07 24.91791 67.21090 758 ft 127 kts 254°
2026-05-06 15:07 24.91544 67.20156 608 ft 127 kts 253°
2026-05-06 15:07 24.91288 67.19212 424 ft 130 kts 253°
2026-05-06 15:08 24.91053 67.18257 293 ft 128 kts 257°
2026-05-06 15:08 24.90830 67.17306 124 ft 127 kts 251°
2026-05-06 15:08 24.90609 67.16457 105 ft 91 kts 255°
2026-05-06 15:08 24.90518 67.16087 103 ft 24 kts 255°
2026-05-06 15:09 24.90474 67.15910 102 ft 24 kts 255°
2026-05-06 15:09 24.90414 67.15775 103 ft 12 kts 205°
2026-05-06 15:09 24.90327 67.15772 102 ft 12 kts 168°
2026-05-06 15:09 24.90310 67.15777 101 ft 0 kts 163°
2026-05-06 15:10 24.90298 67.15783 103 ft 6 kts 155°
2026-05-06 15:10 24.90265 67.15850 103 ft 15 kts 85°
2026-05-06 15:10 24.90300 67.15993 106 ft 17 kts 71°
2026-05-06 15:11 24.90336 67.16131 103 ft 20 kts 75°
2026-05-06 15:11 24.90376 67.16289 104 ft 23 kts 74°
2026-05-06 15:11 24.90411 67.16420 104 ft 16 kts 75°
2026-05-06 15:11 24.90440 67.16551 105 ft 19 kts 76°
2026-05-06 15:12 24.90462 67.16662 105 ft 12 kts 90°
2026-05-06 15:12 24.90406 67.16713 105 ft 9 kts 169°
2026-05-06 15:12 24.90354 67.16729 105 ft 8 kts 141°
2026-05-06 15:12 24.90334 67.16793 106 ft 10 kts 107°
2026-05-06 15:13 24.90302 67.16854 105 ft 0 kts 133°